Grand Marais, MN

8:57 PM CST on January 23, 2018 (GMT -0600)
Grand Marais

Weather History for KGNA - October, 2012

Change the Weather History Date:

Saturday, October 13, 2012

  Actual Average (KCKC) Record (KCKC)
Temperature  
Mean Temperature 40 °F -  
Max Temperature 45 °F 47 °F 62 °F (2003)
Min Temperature 35 °F 33 °F 24 °F (2002)
Degree Days  
Heating Degree Days 26    
Moisture  
Dew Point 37 °F    
Average Humidity 87    
Maximum Humidity 93    
Minimum Humidity 68    
Precipitation  
Precipitation 0.05 in - - ()
Sea Level Pressure  
Sea Level Pressure 29.89 in    
Wind  
Wind Speed 2 mph (NE)    
Max Wind Speed 6 mph    
Max Gust Speed -    
Averages and records for this station are not official NWS values.
T = Trace of Precipitation, MM = Missing Value Source: NWS Daily Summary

Daily Weather History Graph

Daily Weather History Graph

Search for Another Location

Airport or City:

Trip Planner

Search our weather history database for the weather conditions in past years. The results will help you decide how hot, cold, wet, or windy it might be!

Date:

Astronomy

Oct. 13, 2012 Rise Set
Actual Time 7:18 AM CDT 6:15 PM CDT
Civil Twilight 6:47 AM CDT 6:46 PM CDT
Nautical Twilight 6:11 AM CDT 7:22 PM CDT
Astronomical Twilight 5:35 AM CDT 7:58 PM CDT
Moon 5:01 AM CDT (10/13) 5:03 PM CDT (10/13)
Length of Visible Light 11h 59m
Length of Day
10h 57m
Waning Crescent, 5% of the Moon is Illuminated
Oct 13
Waning Crescent
Oct 15
New
Oct 21
First Quarter
Oct 29
Full
Nov 6
Last Quarter

Hourly Weather History & Observations

Time (CDT) Temp. Windchill Dew Point Humidity Pressure Visibility Wind Dir Wind Speed Gust Speed Precip Events Conditions
12:56 AM 43.0 °F - 33.1 °F 68% 30.09 in - Calm Calm - N/A   Unknown
1:56 AM 44.1 °F 40.8 °F 35.1 °F 71% 30.09 in - WSW 5.8 mph - N/A   Unknown
2:56 AM 44.1 °F - 34.0 °F 68% 30.05 in - Calm Calm - N/A   Unknown
3:56 AM 42.1 °F 40.2 °F 35.1 °F 76% 30.03 in - Variable 3.5 mph - N/A   Unknown
4:56 AM 41.0 °F 38.0 °F 37.0 °F 86% 30.01 in - WSW 4.6 mph - 0.01 in   Unknown
5:56 AM 39.9 °F - 37.0 °F 89% 29.96 in - Calm Calm - 0.01 in   Unknown
6:56 AM 39.9 °F - 37.0 °F 89% 29.95 in - Calm Calm - 0.01 in   Unknown
7:56 AM 39.9 °F - 37.9 °F 93% 29.94 in - Calm Calm - 0.01 in   Unknown
8:56 AM 41.0 °F 39.0 °F 37.9 °F 89% 29.90 in - NE 3.5 mph - 0.01 in   Unknown
9:56 AM 41.0 °F - 39.0 °F 93% 29.88 in - Calm Calm - N/A   Unknown
10:56 AM 41.0 °F 39.0 °F 39.0 °F 93% 29.88 in - ENE 3.5 mph - N/A   Unknown
11:56 AM 42.1 °F 40.2 °F 39.9 °F 92% 29.84 in - ENE 3.5 mph - N/A   Unknown
12:56 PM 43.0 °F 41.3 °F 39.9 °F 89% 29.82 in - East 3.5 mph - N/A   Unknown
1:56 PM 43.0 °F 41.3 °F 39.9 °F 89% 29.78 in - ENE 3.5 mph - N/A   Unknown
2:56 PM 43.0 °F - 39.9 °F 89% 29.78 in - Calm Calm - N/A   Unknown
3:56 PM 43.0 °F - 39.9 °F 89% 29.77 in - Calm Calm - N/A   Unknown
4:56 PM 43.0 °F 41.3 °F 39.9 °F 89% 29.78 in - ENE 3.5 mph - N/A   Unknown
5:56 PM 43.0 °F - 39.9 °F 89% 29.79 in - Calm Calm - N/A   Unknown
6:56 PM 42.1 °F - 39.0 °F 89% 29.80 in - Calm Calm - N/A   Unknown
7:56 PM 44.1 °F - 39.9 °F 85% 29.80 in - Calm Calm - N/A   Unknown
8:56 PM 39.9 °F - 37.9 °F 93% 29.82 in - Calm Calm - N/A   Unknown
9:56 PM 37.0 °F 34.5 °F 34.0 °F 89% 29.84 in - NNW 3.5 mph - N/A   Unknown
10:56 PM 35.1 °F - 33.1 °F 92% 29.85 in - Calm Calm - N/A   Unknown
11:56 PM 35.1 °F - 32.0 °F 89% 29.87 in - Calm Calm - N/A   Unknown